Simultaneous Nadir Overpasses (SNOs) Predictions

Prediction of SNOs between GOES-14 and AQUA Satellite Orbit:

Table of predicted SNOs for the next 14.0 days since TLE Epoch: 9/5/2025
Index Date Time (GOES-14) GOES-14 Lat,Lon AQUA Lat,Lon Distance(km) Time Diff (sec)
1 09/08/2025 10:03:28 -0.81,-108.29 -0.84,-108.19 11.38 80
2 09/10/2025 22:02:04 0.79,-108.27 0.91,-107.78 55.62 80
3 09/11/2025 10:23:46 -0.73,-108.32 0.16,-112.37 461.79 80
4 09/13/2025 10:00:29 -0.77,-108.32 -1.00,-107.33 113.03 80
5 09/13/2025 22:22:21 0.71,-108.28 -0.06,-111.96 418.79 80
6 09/15/2025 21:59:02 0.76,-108.29 1.04,-106.91 156.56 80
7 09/16/2025 10:20:45 -0.69,-108.34 -0.00,-111.50 360.07 80
8 09/18/2025 09:57:26 -0.74,-108.35 -1.16,-106.45 215.55 80
9 09/18/2025 22:19:17 0.67,-108.30 0.07,-111.07 316.16 80
